Location: Cutler
(25.6150°N, 80.3110°W)
Time: 17:24:02
(UTC-05:00)

Hubble Space Telescope - Pass Details

Date: 17 November 2017
Orbit: 537 x 541 km, 28.5° (Epoch: 24 November)

Event Time Altitude Azimuth Distance (km) Brightness Sun altitude
Exits shadow 04:38:07 39° 121° (ESE) 801 2.0 -27.4°
Drops below altitude 10° 04:41:11 10° 85° (E) 1,780 4.4 -26.8°
Sets 04:43:30 0° 80° (E) 2,672 5.4 -26.3°
